COSMOS 1275 DEB, 39960

Orbit data source: Space-Track

COSMOS 1275 DEB, 39960 is space debris in LEO originally from a launch on Thu, 04 Jun 1981 UTC launched from the Plesetsk Missile And Space Complex (PKMTR). Debris objects in space refer to the collection of defunct objects orbiting the Earth. Examples of debris include non-operational satellites, rocket bodies, and fragments generated from explosions, collisions, or faulty payload assembly.

Loading next visibility...
Identifier
39960, 1981-053NW
Orbit
LEO
Country
Flag of CISCIS
Related business
Manufacturer
Unknown
Mission
Spacecraft
Bus & Motor
Unknown
Mass
Unknown
Launch date (UTC)
1981-06-04 (45 years ago)
Launch vehicle
Unknown
Launch site
Plesetsk Missile And Space Complex (PKMTR)
Object type
Payload
Rocket body
Debris
Shape & HBR
Unknown shape, 0.1 m
Radar Cross Section
Small (<0.1 m²)

Expand to show TLE details & history
Last TLE update: 2 days ago

TLE from 2 days ago
0 COSMOS 1275 DEB
1 39960U 81053NW  26143.38337767  .00000261  00000-0  33773-3 0  9999
2 39960  83.1439 193.6289 0242185  96.0780 266.8012 13.46814186568834
Epoch: 2026-05-23T09:12Z
TLE epoch observation values (Epoch: 2026-05-23T09:12:03.830Z)
Latitude
-0.00008°
Longitude
174.61227°
Altitude
1,101.31 km
Speed
7.295 km/s
True Right ascension
12h 54m 30s
True Declination
0° 00' 00"
Sunlit
Object was in full shadow at epoch
Visualization orbit readout
Latitude
Unknown
Longitude
Unknown
Altitude
Unknown
Speed
Unknown
Apparent Right ascension
Unknown
Apparent Declination
Unknown
Sunlit
N/A
Visualization observer readout
Local Sidereal Time
09:20:24
Azimuth
Unknown
Elevation
Unknown
Doppler factor
Unknown
Orbital elements
Apogee altitude
1,261.834 km
Perigee altitude
900.527 km
Semi-major axis
7,459.318 km
Eccentricity
0.02422
Inclination
83.1439°
RAAN
193.6289°
Arg. of periapsis
96.078°
True anomaly
264.03604°
Mean anomaly
266.8012°
Eccentric anomaly
265.41802°
Mean motion
3.36895 °/min
Orbital period
106.86 mins
BSTAR
0.00033773
Loading maneuver chart data...
Computing Atmospheric mass density...

Documentation

Showing up to 5 results
|